Location: Cassano d�Adda
(45.5333°N, 9.5167°E)
Time: 14:32:03
(UTC+00:00)

Cosmos 1867 - Pass Details

Date: 08 December 2019
Orbit: 777 x 799 km, 65.0° (Epoch: 27 January)

Event Time Altitude Azimuth Distance (km) Brightness Sun altitude
Rises 17:22:13 0° 328° (NNW) 3,314 7.0 -17.4°
Reaches altitude 10° 17:24:58 10° 339° (NNW) 2,381 6.1 -17.9°
Maximum altitude 17:29:44 29° 40° (NE) 1,426 4.5 -18.7°
Enters shadow 17:30:00 29° 45° (NE) 1,430 4.4 -18.7°
